Temperature
23 21 20 21 21 21 21 20 19 18 18 17 16 15 15 15 15 15 15 15 15 15 14 14 14 14 13 13 13 13 13 13 13 13 13 13 14 14 14 14 14 14 15 15
20 21 22 21 21 21 20 19 19 18 18 17 15 15 15 15 15 15 15 15 15 15 14 14 14 13 13 13 13 13 13 13 13 13 13 13 13 13 13 13 14 14 14 14
21 22 22 21 20 20 20 19 19 18 16 15 16 15 15 15 15 15 15 15 15 14 14 14 14 13 13 13 13 12 12 12 12 12 12 12 13 13 13 13 13 14 14 14
21 21 21 20 20 20 20 20 19 18 16 15 16 14 14 14 14 14 15 15 15 14 14 14 13 13 13 12 12 12 12 12 12 12 12 12 12 12 12 12 13 13 13 13
21 21 21 21 20 20 20 18 18 17 16 15 15 14 13 13 13 13 14 15 15 14 14 14 13 13 13 12 12 12 12 12 12 12 12 12 12 12 12 12 12 13 13 13
20 21 20 20 19 19 18 16 15 13 14 15 15 14 14 12 13 14 14 15 15 14 14 14 13 13 13 12 12 12 12 12 12 12 12 12 12 12 12 12 12 13 13 13
20 20 20 20 19 18 17 15 15 15 14 14 15 14 14 14 13 14 14 15 15 14 14 13 13 13 13 12 12 12 12 12 12 12 12 12 12 12 12 12 12 12 13 13
20 19 19 20 19 18 17 16 15 16 15 14 14 14 14 15 15 15 15 15 15 14 14 14 13 13 13 12 12 12 12 12 12 12 12 12 11 12 12 12 12 12 12 12
18 19 19 20 19 18 17 15 15 13 15 14 14 14 14 14 14 14 14 14 14 14 14 14 13 13 13 12 12 12 12 12 12 12 12 11 11 11 12 12 12 12 12 12
18 19 19 19 19 18 17 14 12 13 15 14 14 14 14 14 13 13 13 14 15 14 14 14 13 13 13 12 12 12 12 12 12 11 11 11 11 11 11 12 12 12 12 12
17 17 18 18 18 18 17 15 12 11 12 13 14 14 14 14 14 13 13 15 15 15 14 14 14 13 13 13 12 12 12 12 12 12 11 11 11 11 11 12 12 12 12 12
15 14 16 17 18 18 18 16 13 14 14 12 12 13 14 14 14 14 15 15 15 15 14 14 14 14 13 13 12 12 12 12 11 11 11 11 11 11 11 12 12 12 12 12
15 15 16 17 17 18 18 16 14 12 11 10 12 13 14 14 14 15 15 15 15 15 15 14 14 14 13 13 13 12 12 12 11 11 11 11 11 11 11 11 11 11 11 11
16 14 16 17 17 16 17 16 13 13 13 12 12 13 14 14 13 14 15 16 15 15 15 14 14 14 14 13 13 12 12 12 11 11 11 11 11 11 11 11 11 11 11 11
15 16 17 17 17 17 17 17 15 14 14 13 14 14 14 14 14 15 16 16 15 15 15 15 14 14 14 13 13 13 12 12 11 11 11 11 11 11 11 11 11 11 11 11
14 17 18 18 18 17 18 17 16 15 15 14 14 14 14 16 16 16 16 16 16 15 15 15 15 14 14 14 13 13 12 12 11 11 11 11 11 11 11 11 11 11 11 11
14 16 16 16 16 18 18 18 17 16 15 15 15 15 15 15 15 17 17 17 16 16 16 15 15 15 14 14 13 13 13 12 12 11 11 11 11 11 11 11 11 11 11 11
14 13 12 14 17 19 18 18 17 17 16 15 15 15 16 17 18 18 18 18 17 16 16 15 15 15 14 14 13 13 13 12 12 11 11 11 11 11 11 10 11 11 11 11
13 13 13 13 16 16 18 19 18 18 18 17 15 15 17 16 16 18 19 18 17 17 16 16 15 15 14 14 14 13 13 12 12 12 11 11 11 11 11 10 10 10 10 10
12 12 12 13 17 18 19 19 19 19 19 19 18 17 16 15 14 16 19 19 18 17 16 16 15 15 15 14 14 13 13 12 12 12 11 11 11 11 11 10 10 10 10 10
15 13 13 14 15 15 16 18 19 19 18 20 20 19 17 16 17 20 19 19 18 17 17 16 15 15 15 14 14 14 13 13 12 12 12 11 11 11 11 10 10 10 10 10
14 13 13 12 15 17 18 17 17 18 20 21 21 21 20 20 20 19 19 19 18 17 17 16 16 15 15 15 14 14 13 13 13 12 12 12 11 11 11 11 11 10 10 11
13 14 12 13 15 17 18 18 19 19 20 20 21 21 21 21 20 20 19 19 18 18 17 16 16 16 15 15 15 14 14 13 13 12 12 12 11 11 11 11 11 11 11 11
13 13 12 13 15 17 17 18 19 19 20 20 20 21 21 21 21 20 20 19 18 18 17 17 16 16 16 15 15 15 14 14 13 13 13 12 12 12 11 11 11 11 11 11
14 12 13 15 15 16 18 17 18 20 20 21 21 21 20 20 20 20 20 19 19 18 18 17 17 16 16 16 16 15 15 14 14 13 13 12 12 12 12 11 11 11 11 11
11 12 14 14 14 13 15 16 17 19 20 20 20 20 20 20 20 20 20 19 19 18 18 17 17 17 17 16 16 16 15 15 14 14 13 13 13 12 12 12 11 11 11 11
Wind_Speed
4 6 3 5 6 4 5 5 3 1 2 4 4 3 3 2 3 2 1 2 4 5 6 6 6 7 8 8 8 8 9 9 7 5 5 5 5 5 5 4 6 6 6 6
6 2 1 4 5 6 5 4 2 2 3 3 3 1 1 2 3 4 3 4 4 5 6 7 7 7 7 8 9 8 9 9 8 6 5 4 5 5 5 5 5 6 5 5
6 0 3 6 6 5 3 4 4 4 3 4 3 3 3 2 1 2 3 3 4 4 6 7 8 8 8 9 9 9 9 9 9 8 6 5 4 4 4 4 5 4 6 5
4 3 5 6 4 3 1 1 4 5 4 1 2 4 6 4 3 4 5 4 5 6 6 7 8 9 9 9 9 9 9 9 9 8 6 6 5 5 5 5 5 6 5 5
3 3 5 4 2 2 2 4 4 3 4 2 1 2 7 1 5 7 7 6 6 6 6 7 8 8 9 8 8 8 9 8 9 8 7 7 6 5 6 6 6 6 5 4
4 3 3 3 3 4 5 7 7 6 5 1 2 4 7 5 7 5 5 5 6 6 7 7 7 7 7 8 8 8 9 9 8 8 8 7 8 8 8 8 7 6 5 4
5 4 4 2 4 6 7 6 5 5 4 4 2 3 8 5 7 6 6 6 6 6 6 7 8 8 9 9 9 8 9 9 9 9 8 8 8 8 7 7 6 6 5 4
4 2 4 3 3 3 3 6 6 2 4 5 3 5 7 4 3 4 4 4 5 6 6 7 7 7 8 8 8 8 9 9 9 9 9 8 8 6 6 6 6 5 5 5
6 3 2 2 2 6 4 3 5 6 1 3 6 7 7 2 3 3 4 5 6 7 7 7 7 7 7 8 8 7 8 8 9 9 9 8 8 8 7 7 6 5 5 5
7 5 1 1 6 5 4 8 5 4 1 4 7 6 5 6 8 8 7 7 7 7 7 7 6 6 6 6 6 6 6 7 7 8 8 7 8 8 8 7 7 6 6 6
4 6 1 3 2 2 3 4 5 4 4 4 4 7 6 7 8 9 9 8 8 7 7 7 6 6 6 6 5 6 7 7 7 8 7 8 8 8 8 7 7 7 6 6
4 5 1 3 2 2 3 5 6 3 2 4 3 7 6 7 7 8 8 8 7 7 6 6 6 6 6 6 6 6 6 6 6 7 7 8 8 9 9 8 8 8 7 6
6 6 3 5 5 1 2 4 5 6 5 4 3 8 4 3 5 7 7 8 7 7 7 5 5 6 6 5 5 5 5 6 6 6 7 8 8 9 9 9 9 8 8 7
5 5 6 6 7 5 4 5 6 6 4 4 7 9 8 8 8 8 8 8 7 7 7 6 6 6 5 5 5 5 5 5 5 5 6 7 8 8 8 8 8 8 8 7
5 4 4 4 3 4 5 6 8 8 8 8 8 8 12 9 9 9 8 7 7 7 7 7 6 6 5 5 4 4 4 4 4 5 6 6 7 7 7 8 8 8 8 8
3 4 2 3 3 3 4 6 7 8 6 8 7 9 10 7 4 5 7 8 8 9 8 7 7 6 5 5 4 4 4 4 3 4 5 6 6 7 7 8 8 8 8 8
3 4 3 2 5 3 6 7 7 7 8 8 9 9 6 4 7 8 9 9 10 10 8 8 7 6 6 5 4 4 3 2 2 3 4 5 6 7 7 7 8 8 8 8
6 5 4 1 3 3 7 4 6 6 8 9 9 9 7 8 6 6 8 9 10 9 8 8 6 5 4 3 3 2 1 1 2 3 4 5 5 6 6 7 7 7 6 7
4 7 4 3 0 7 8 3 5 3 6 6 8 9 4 1 2 5 8 10 10 10 8 7 6 5 3 3 3 2 1 1 2 3 4 4 4 5 6 6 6 5 5 6
6 6 6 4 1 4 6 3 2 3 5 6 6 6 4 6 0 6 6 8 9 8 7 6 5 4 4 4 3 3 2 2 3 4 4 3 3 3 4 5 4 4 4 5
3 4 4 4 3 7 8 4 2 2 6 5 4 5 9 9 8 4 3 5 7 8 7 6 6 5 5 4 5 4 4 5 5 3 2 3 3 3 3 3 3 4 4 5
7 6 5 5 3 6 4 5 5 7 4 3 3 5 8 10 7 4 4 5 6 7 7 7 6 6 5 5 6 6 6 5 3 2 2 2 3 2 1 2 3 3 4 5
7 8 7 8 7 5 3 5 5 3 4 4 3 4 6 7 7 6 6 6 7 8 7 6 7 7 5 6 7 8 7 5 4 3 3 3 2 2 1 1 2 2 3 3
3 3 4 4 5 4 3 4 6 5 6 6 5 4 5 7 7 7 6 6 7 7 7 6 7 7 7 7 8 9 6 5 5 5 4 3 3 2 2 1 1 1 1 1
2 4 3 4 5 5 5 7 10 8 6 5 5 3 3 5 6 6 6 7 7 7 6 6 8 9 10 8 9 9 7 7 6 6 5 4 3 3 3 2 2 3 3 3
3 5 5 5 1 2 5 8 11 9 8 6 5 5 3 2 5 5 6 7 7 7 6 6 8 9 10 8 9 9 8 8 8 7 6 5 4 4 3 3 3 5 6 5
Wind_Direction
49 80 130 201 196 183 161 161 174 189 128 132 166 178 189 149 141 166 226 283 303 309 311 327 330 330 333 333 332 330 331 329 332 329 327 320 316 311 305 294 297 297 291 282
53 61 216 118 101 96 108 126 127 70 67 110 137 227 245 196 199 212 229 260 289 313 325 327 325 328 329 326 327 329 331 329 331 325 311 290 289 291 286 288 297 296 294 287
128 187 89 97 91 89 97 155 176 158 74 61 83 324 253 244 211 223 241 261 289 303 308 315 320 320 326 327 326 329 327 328 328 327 321 317 311 304 309 312 309 300 297 285
89 43 88 89 83 115 180 216 150 137 120 251 137 281 276 241 254 254 261 278 287 296 301 308 317 320 322 320 323 326 329 330 331 334 336 335 328 318 307 305 300 302 296 290
78 74 87 86 66 108 143 63 84 111 128 69 41 211 289 253 256 257 257 265 275 286 296 304 309 310 313 317 324 330 333 334 337 341 341 337 330 315 312 313 313 314 310 299
68 45 79 116 68 62 106 70 57 50 73 347 236 187 280 232 227 243 242 254 270 285 299 305 307 314 316 320 328 335 338 335 338 341 342 344 337 330 328 329 327 324 317 310
39 21 18 81 73 31 64 76 29 4 6 264 262 210 255 253 229 221 226 244 266 284 295 300 308 316 318 323 329 333 337 335 336 341 343 341 336 332 329 327 326 328 326 321
130 329 348 36 114 107 76 120 143 209 253 290 316 251 261 268 238 220 218 237 270 288 291 292 294 302 309 315 323 331 335 332 336 341 338 337 339 337 331 330 329 326 319 312
152 191 344 61 96 117 110 94 150 134 180 295 293 290 304 222 245 236 242 253 272 282 289 291 296 303 308 313 318 326 332 332 336 341 339 340 343 344 340 336 338 336 330 327
136 138 350 45 70 47 104 138 94 103 123 303 303 291 267 254 247 243 242 247 262 277 287 293 298 302 307 309 313 327 333 330 333 342 344 345 342 344 343 344 347 344 339 339
100 123 14 33 109 159 106 87 99 106 143 160 294 283 232 231 233 228 234 237 250 264 274 281 291 298 306 314 323 332 336 338 342 343 343 347 346 346 349 352 350 345 341 343
101 110 124 279 283 231 167 154 145 145 211 169 201 270 271 246 243 225 231 238 247 258 268 276 287 302 313 320 325 330 332 335 336 339 346 347 346 350 356 356 355 352 350 349
130 108 77 351 343 335 167 142 134 124 117 156 200 267 290 284 256 236 232 238 248 262 276 287 295 299 303 309 316 322 327 329 334 344 349 350 351 353 354 353 354 357 358 357
111 110 157 190 221 204 201 176 151 136 157 214 230 259 291 270 253 246 235 236 242 257 269 278 284 288 290 294 302 312 320 326 334 345 350 350 348 349 349 351 356 0 0 1
98 133 193 227 230 187 213 205 179 188 196 207 242 247 265 262 240 235 226 225 236 254 263 268 269 275 284 288 295 302 314 324 333 345 348 343 342 348 354 357 358 0 4 4
76 120 79 355 350 213 251 243 209 217 215 231 260 274 259 265 235 226 221 217 229 242 252 261 266 268 272 273 279 291 302 314 329 341 338 338 347 354 356 355 357 4 6 6
92 114 96 315 323 21 287 248 202 218 216 201 227 247 259 247 233 227 220 216 224 234 242 248 254 255 260 259 254 263 278 304 334 335 335 340 346 352 351 354 2 5 4 9
122 100 107 67 32 261 247 256 196 221 251 221 233 250 238 235 249 245 216 211 224 230 233 239 242 248 250 242 234 247 273 307 326 331 331 336 345 348 350 358 1 359 3 9
120 126 109 102 355 292 302 262 178 196 288 233 229 253 249 193 4 298 227 208 216 220 219 225 226 224 227 229 215 193 242 303 318 317 318 327 341 346 352 357 354 356 5 11
66 88 108 118 144 248 257 292 170 113 299 273 218 240 177 128 93 274 251 207 213 215 214 217 213 205 218 220 182 180 223 255 271 281 296 312 328 340 345 345 346 351 3 6
86 65 113 148 219 265 252 257 125 93 263 276 217 209 171 190 210 237 260 207 205 207 210 204 196 207 220 198 174 197 224 243 250 261 291 312 321 320 326 342 350 356 8 15
167 152 167 146 183 263 250 157 181 223 256 271 243 204 199 225 243 244 243 223 208 206 207 196 196 218 220 190 183 209 233 239 232 233 267 295 311 322 344 356 354 4 13 18
188 186 182 185 208 247 274 224 269 274 263 265 254 240 214 229 240 232 231 226 218 211 209 200 201 219 223 202 194 213 234 218 203 214 247 270 292 314 333 340 341 355 10 16
241 162 158 239 268 278 299 308 313 284 258 272 270 261 207 223 238 231 228 225 221 217 211 203 200 218 231 216 209 219 224 198 194 214 236 248 261 278 292 287 278 286 315 336
212 166 186 246 296 327 354 2 338 324 315 312 311 285 240 231 245 232 229 227 223 220 214 201 206 220 233 224 219 221 211 191 201 216 226 232 236 245 257 258 246 243 242 218
195 175 177 209 250 265 296 333 340 341 348 344 345 352 343 256 255 246 237 233 226 225 217 214 220 228 236 228 227 223 205 193 198 215 223 222 221 226 230 249 279 254 242 251
Height
1526 1532 1539 1538 1537 1538 1541 1548 1552 1551 1549 1553 1557 1558 1557 1557 1558 1557 1557 1557 1556 1555 1553 1551 1548 1545 1542 1538 1534 1530 1526 1522 1519 1516 1512 1510 1507 1506 1504 1503 1502 1502 1502 1502
1532 1537 1533 1533 1535 1538 1543 1549 1552 1552 1551 1555 1559 1559 1557 1557 1557 1557 1556 1556 1555 1554 1552 1550 1547 1544 1540 1536 1533 1529 1525 1521 1518 1514 1511 1508 1505 1503 1501 1499 1499 1498 1497 1497
1534 1536 1532 1534 1539 1542 1545 1549 1551 1554 1556 1557 1560 1562 1559 1556 1556 1556 1556 1555 1554 1553 1551 1549 1546 1543 1539 1535 1532 1528 1524 1520 1517 1513 1510 1506 1503 1501 1498 1496 1495 1494 1494 1494
1534 1534 1534 1538 1542 1543 1549 1544 1546 1552 1561 1567 1563 1574 1561 1557 1556 1555 1554 1554 1553 1552 1550 1548 1545 1542 1538 1535 1531 1528 1524 1520 1516 1512 1509 1505 1502 1498 1496 1494 1492 1491 1490 1490
1537 1536 1538 1541 1542 1541 1545 1545 1548 1552 1560 1569 1567 1573 1565 1558 1557 1554 1552 1552 1552 1551 1549 1547 1545 1542 1538 1535 1531 1527 1524 1520 1516 1512 1508 1504 1501 1498 1495 1492 1490 1489 1488 1487
1537 1537 1537 1540 1541 1542 1544 1550 1555 1562 1567 1575 1568 1574 1567 1561 1555 1551 1550 1550 1550 1550 1548 1546 1544 1541 1538 1534 1531 1527 1523 1519 1516 1512 1508 1504 1500 1497 1494 1491 1489 1487 1485 1485
1542 1541 1539 1539 1543 1545 1548 1561 1576 1576 1583 1578 1567 1570 1564 1551 1549 1549 1549 1549 1549 1548 1547 1545 1543 1540 1537 1534 1530 1527 1523 1519 1515 1512 1508 1504 1501 1497 1494 1491 1488 1485 1484 1483
1549 1553 1543 1541 1544 1549 1553 1560 1577 1583 1586 1580 1568 1569 1557 1548 1546 1547 1547 1548 1548 1547 1546 1544 1542 1540 1537 1533 1530 1526 1523 1519 1515 1512 1508 1504 1501 1497 1494 1491 1488 1485 1483 1481
1549 1552 1543 1541 1542 1545 1553 1561 1563 1576 1576 1581 1574 1563 1551 1546 1546 1546 1546 1546 1546 1546 1545 1543 1541 1539 1536 1533 1530 1526 1523 1519 1516 1512 1508 1505 1501 1498 1494 1491 1488 1485 1483 1481
1540 1550 1546 1543 1544 1547 1550 1559 1569 1575 1581 1585 1577 1569 1561 1548 1546 1545 1544 1544 1545 1544 1543 1542 1540 1538 1536 1533 1530 1526 1523 1520 1516 1513 1509 1505 1501 1498 1494 1491 1488 1485 1483 1481
1538 1550 1551 1548 1549 1551 1554 1560 1569 1578 1578 1586 1585 1572 1548 1544 1541 1541 1541 1542 1543 1543 1542 1541 1539 1537 1535 1532 1530 1526 1523 1520 1517 1513 1510 1506 1502 1498 1495 1491 1488 1485 1483 1480
1542 1552 1559 1552 1547 1546 1548 1554 1565 1573 1576 1581 1585 1573 1541 1539 1538 1538 1539 1540 1541 1541 1540 1539 1538 1536 1534 1532 1529 1526 1523 1520 1517 1514 1510 1507 1503 1499 1495 1492 1489 1486 1483 1480
1541 1552 1564 1562 1559 1550 1549 1553 1559 1568 1576 1583 1583 1567 1539 1538 1537 1536 1537 1538 1539 1539 1539 1538 1537 1535 1533 1531 1529 1526 1523 1520 1518 1515 1511 1508 1504 1500 1496 1493 1490 1487 1484 1481
1537 1549 1558 1562 1558 1551 1550 1552 1558 1563 1572 1575 1570 1558 1542 1537 1535 1534 1534 1535 1536 1537 1537 1536 1535 1534 1533 1531 1528 1526 1523 1521 1518 1515 1512 1509 1505 1502 1498 1495 1492 1488 1485 1483
1537 1547 1546 1547 1545 1546 1546 1548 1553 1556 1558 1562 1555 1551 1539 1533 1531 1530 1531 1533 1534 1534 1535 1535 1534 1533 1532 1530 1528 1526 1523 1521 1518 1515 1513 1510 1507 1504 1500 1497 1494 1491 1487 1484
1538 1544 1544 1545 1543 1544 1545 1543 1546 1549 1549 1550 1548 1544 1529 1527 1527 1527 1528 1530 1531 1532 1532 1533 1532 1532 1530 1529 1527 1525 1523 1521 1518 1516 1513 1511 1508 1505 1502 1499 1496 1493 1489 1487
1542 1545 1551 1554 1548 1544 1548 1539 1541 1541 1540 1541 1543 1535 1526 1526 1525 1525 1525 1527 1528 1529 1530 1531 1531 1530 1529 1528 1527 1525 1523 1521 1518 1516 1514 1511 1509 1506 1503 1501 1498 1495 1492 1489
1541 1549 1557 1558 1551 1554 1543 1530 1532 1534 1533 1532 1530 1526 1524 1524 1523 1523 1524 1524 1525 1527 1528 1529 1529 1529 1528 1527 1526 1524 1522 1520 1518 1516 1514 1512 1510 1507 1505 1502 1499 1497 1494 1491
1537 1545 1557 1562 1559 1554 1537 1528 1529 1531 1530 1524 1524 1522 1522 1522 1522 1521 1521 1522 1523 1525 1526 1527 1527 1527 1527 1526 1525 1523 1522 1520 1518 1517 1515 1513 1511 1509 1506 1504 1501 1499 1496 1494
1540 1543 1555 1561 1555 1554 1538 1526 1525 1529 1531 1521 1520 1519 1520 1522 1527 1522 1518 1519 1521 1522 1524 1525 1526 1526 1526 1525 1524 1523 1521 1520 1518 1517 1515 1513 1512 1510 1508 1506 1503 1501 1498 1496
1544 1550 1555 1559 1557 1550 1529 1525 1527 1538 1535 1519 1518 1517 1518 1519 1519 1518 1517 1518 1519 1520 1522 1523 1524 1524 1524 1524 1523 1522 1521 1519 1518 1517 1515 1514 1512 1511 1509 1507 1505 1503 1500 1498
1543 1550 1554 1558 1556 1547 1523 1524 1528 1526 1518 1517 1517 1516 1516 1515 1515 1516 1516 1517 1518 1519 1520 1521 1522 1522 1523 1522 1522 1521 1520 1519 1518 1517 1515 1514 1513 1511 1510 1508 1506 1504 1502 1501
1536 1536 1539 1541 1537 1526 1522 1521 1520 1519 1517 1516 1516 1515 1514 1514 1514 1514 1514 1515 1516 1517 1518 1519 1519 1520 1520 1520 1520 1520 1519 1518 1517 1516 1515 1514 1513 1511 1510 1509 1507 1505 1504 1502
1529 1528 1531 1532 1524 1521 1520 1519 1517 1516 1515 1514 1514 1513 1513 1512 1512 1512 1512 1513 1514 1515 1515 1516 1517 1517 1518 1518 1518 1518 1518 1517 1516 1515 1514 1513 1512 1511 1510 1509 1507 1506 1505 1503
1524 1526 1527 1526 1522 1519 1518 1517 1515 1514 1513 1512 1512 1511 1511 1510 1510 1510 1510 1511 1511 1512 1513 1514 1514 1514 1515 1515 1515 1515 1515 1515 1514 1513 1513 1512 1511 1510 1509 1508 1507 1506 1505 1504
1522 1523 1524 1523 1522 1521 1519 1518 1515 1513 1512 1511 1510 1509 1509 1509 1508 1508 1508 1508 1509 1509 1510 1510 1511 1511 1511 1512 1512 1512 1512 1512 1511 1511 1511 1510 1509 1509 1508 1507 1506 1505 1504 1503